Orbital elements of FENGYUN 1C DEB
| Launched | 9 May 1999 |
| Flight ended | – |
| Launch site | Taiyuan Space Center, PRC |
| Owner | People's Republic of China |
| NORAD ID | 30327 |
| Date fetched |
Epoch osculation |
Inc. [°] |
Ecc. | RA asc node [hr] |
Arg Peri. [°] |
Mean anom [°] |
Mean motion [rev/day] |
Abs. mag |
| Date fetched |
Epoch osculation |
Inc. [°] |
Ecc. | RA asc node [hr] |
Arg Peri. [°] |
Mean anom [°] |
Mean motion [rev/day] |
Abs. mag |
| 2026 May 03 17:57 | 2026 Apr 28 15:33:20 | 98.4387 | 0.01177 | 0.7614 | 105.8552 | 316.2134 | 14.19151 | – |
| 2026 May 02 17:57 | 2026 Apr 28 15:33:20 | 98.4387 | 0.01177 | 0.7614 | 105.8552 | 316.2134 | 14.19151 | – |
| 2026 May 01 17:56 | 2026 Apr 28 15:33:20 | 98.4387 | 0.01177 | 0.7614 | 105.8552 | 316.2134 | 14.19151 | – |
| 2026 Apr 30 17:56 | 2026 Apr 28 15:33:20 | 98.4387 | 0.01177 | 0.7614 | 105.8552 | 316.2134 | 14.19151 | – |
| 2026 Apr 29 17:57 | 2026 Apr 23 03:59:39 | 98.4373 | 0.01170 | 0.4133 | 121.6552 | 316.2134 | 14.19151 | – |
| 2026 Apr 28 17:56 | 2026 Apr 23 03:59:39 | 98.4373 | 0.01170 | 0.4133 | 121.6552 | 316.2134 | 14.19151 | – |
| 2026 Apr 27 17:58 | 2026 Apr 23 03:59:39 | 98.4373 | 0.01170 | 0.4133 | 121.6552 | 316.2134 | 14.19151 | – |
| 2026 Apr 26 17:58 | 2026 Apr 23 03:59:39 | 98.4373 | 0.01170 | 0.4133 | 121.6552 | 316.2134 | 14.19151 | – |
| 2026 Apr 25 17:58 | 2026 Apr 23 03:59:39 | 98.4373 | 0.01170 | 0.4133 | 121.6552 | 316.2134 | 14.19151 | – |
| 2026 Apr 24 17:59 | 2026 Apr 23 03:59:39 | 98.4373 | 0.01170 | 0.4133 | 121.6552 | 316.2134 | 14.19151 | – |
| 2026 Apr 23 17:57 | 2026 Apr 17 04:10:14 | 98.4386 | 0.01163 | 0.0329 | 139.0560 | 316.2134 | 14.19151 | – |
| 2026 Apr 22 17:57 | 2026 Apr 17 04:10:14 | 98.4386 | 0.01163 | 0.0329 | 139.0560 | 316.2134 | 14.19151 | – |
| 2026 Apr 21 17:57 | 2026 Apr 17 04:10:14 | 98.4386 | 0.01163 | 0.0329 | 139.0560 | 316.2134 | 14.19151 | – |
| 2026 Apr 20 17:57 | 2026 Apr 17 04:10:14 | 98.4386 | 0.01163 | 0.0329 | 139.0560 | 316.2134 | 14.19151 | – |
| 2026 Apr 19 17:58 | 2026 Apr 17 04:10:14 | 98.4386 | 0.01163 | 0.0329 | 139.0560 | 316.2134 | 14.19151 | – |
| 2026 Apr 18 17:56 | 2026 Apr 13 03:43:20 | 98.4388 | 0.01159 | 23.7777 | 150.7678 | 316.2134 | 14.19151 | – |
| 2026 Apr 16 17:57 | 2026 Apr 13 03:43:20 | 98.4388 | 0.01159 | 23.7777 | 150.7678 | 316.2134 | 14.19151 | – |
| 2026 Apr 14 17:57 | 2026 Apr 13 03:43:20 | 98.4388 | 0.01159 | 23.7777 | 150.7678 | 316.2134 | 14.19151 | – |
| 2026 Apr 13 17:57 | 2026 Apr 13 03:43:20 | 98.4388 | 0.01159 | 23.7777 | 150.7678 | 316.2134 | 14.19151 | – |
| 2026 Apr 12 17:57 | 2026 Apr 07 15:08:05 | 98.4386 | 0.01154 | 23.4269 | 166.9548 | 316.2134 | 14.19151 | – |
| 2026 Apr 11 17:57 | 2026 Apr 07 15:08:05 | 98.4386 | 0.01154 | 23.4269 | 166.9548 | 316.2134 | 14.19151 | – |
| 2026 Apr 10 17:58 | 2026 Apr 07 15:08:05 | 98.4386 | 0.01154 | 23.4269 | 166.9548 | 316.2134 | 14.19151 | – |
| 2026 Apr 09 18:01 | 2026 Apr 07 15:08:05 | 98.4386 | 0.01154 | 23.4269 | 166.9548 | 316.2134 | 14.19151 | – |
| 2026 Apr 08 17:57 | 2026 Apr 07 15:08:05 | 98.4386 | 0.01154 | 23.4269 | 166.9548 | 316.2134 | 14.19151 | – |
| 2026 Apr 07 17:57 | 2026 Mar 31 11:13:30 | 98.4398 | 0.01149 | 22.9720 | 188.0436 | 316.2134 | 14.19151 | – |
| 2026 Apr 06 17:57 | 2026 Mar 31 11:13:30 | 98.4398 | 0.01149 | 22.9720 | 188.0436 | 316.2134 | 14.19151 | – |